Weather History for Whiteman AFB, MO

Change the Weather History Date:

Saturday, January 25, 2014

  Actual Average Record
Temperature  
Mean Temperature 34 °F -  
Max Temperature 45 °F 37 °F 59 °F (2005)
Min Temperature 23 °F 20 °F 8 °F (1997)
Degree Days  
Heating Degree Days 31    
Moisture  
Dew Point 18 °F    
Average Humidity 47    
Maximum Humidity 62    
Minimum Humidity 21    
Precipitation  
Precipitation 0.00 in - - ()
Sea Level Pressure  
Sea Level Pressure 29.92 in    
Wind  
Wind Speed 14 mph (WNW)    
Max Wind Speed 21 mph    
Max Gust Speed 36 mph    
Visibility 10 miles    
Events      
Averages and records for this station are not official NWS values.
T = Trace of Precipitation, MM = Missing Value Source: NWS Daily Summary

Daily Weather History Graph

Daily Weather History Graph

Search for Another Location

Airport:

Trip Planner

Search our weather history database for the weather conditions in past years. The results will help you decide how hot, cold, wet, or windy it might be!

Date:

Astronomy

Jan. 25, 2014 Rise Set
Actual Time 7:25 AM CST 5:27 PM CST
Civil Twilight 6:57 AM CST 5:56 PM CST
Nautical Twilight 6:24 AM CST 6:28 PM CST
Astronomical Twilight 5:53 AM CST 7:00 PM CST
Moon 1:58 AM CST (1/25) 12:28 PM CST (1/25)
Length of Visible Light 10h 59m
Length of Day
10h 02m
Waning Crescent, 34% of the Moon is Illuminated
Jan 25
Waning Crescent
Jan 30
New
Feb 6
First Quarter
Feb 14
Full
Feb 22
Last Quarter

Hourly Weather History & Observations

Time (CST) Temp. Windchill Dew Point Humidity Pressure Visibility Wind Dir Wind Speed Gust Speed Precip Events Conditions
12:58 AM 39.2 °F 30.2 °F 14.5 °F 37% 29.77 in 10.0 mi WSW 17.3 mph 28.8 mph N/A   Mostly Cloudy
1:58 AM 38.3 °F 30.5 °F 15.6 °F 40% 29.78 in 10.0 mi WSW 12.7 mph 23.0 mph N/A   Mostly Cloudy
2:58 AM 40.6 °F 32.7 °F 18.3 °F 41% 29.78 in 10.0 mi West 15.0 mph 21.9 mph N/A   Partly Cloudy
3:58 AM 42.3 °F 35.5 °F 22.5 °F 45% 29.81 in 10.0 mi West 12.7 mph - N/A   Mostly Cloudy
4:58 AM 45.7 °F 37.8 °F 31.3 °F 57% 29.84 in 10.0 mi NNW 20.7 mph 35.7 mph N/A   Mostly Cloudy
5:58 AM 42.8 °F 35.4 °F 29.5 °F 59% 29.87 in 10.0 mi NNW 15.0 mph - N/A   Clear
6:58 AM 41.5 °F 35.9 °F 29.3 °F 62% 29.88 in 10.0 mi NW 9.2 mph - N/A   Clear
7:58 AM 41.9 °F 34.0 °F 29.5 °F 61% 29.91 in 10.0 mi NW 16.1 mph 21.9 mph N/A   Overcast
8:52 AM 42.8 °F 35.4 °F 30.2 °F 61% 29.90 in 10.0 mi WNW 15.0 mph - N/A   Light Drizzle
8:58 AM 42.8 °F 35.4 °F 30.0 °F 61% 29.93 in 10.0 mi WNW 15.0 mph - 0.00 in   Light Drizzle
9:01 AM 42.8 °F 35.4 °F 30.2 °F 61% 29.90 in 10.0 mi WNW 15.0 mph - N/A   Overcast
9:23 AM 42.8 °F 35.8 °F 30.2 °F 61% 29.91 in 10.0 mi NW 13.8 mph 19.6 mph N/A   Light Drizzle
9:32 AM 42.8 °F 36.6 °F 30.2 °F 61% 29.91 in 10.0 mi NW 11.5 mph 19.6 mph N/A   Overcast
9:58 AM 44.1 °F 36.8 °F 30.4 °F 59% 29.96 in 10.0 mi NW 16.1 mph 23.0 mph 0.00 in   Overcast
10:58 AM 44.2 °F 36.7 °F 30.4 °F 58% 29.98 in 10.0 mi NW 17.3 mph 24.2 mph N/A   Overcast
11:58 AM 43.2 °F 34.5 °F 28.0 °F 55% 29.99 in 10.0 mi NNW 20.7 mph 29.9 mph N/A   Overcast
12:58 PM 41.7 °F 33.1 °F 18.1 °F 39% 29.99 in 10.0 mi NNW 18.4 mph 26.5 mph N/A   Clear
1:58 PM 42.6 °F 35.2 °F 7.7 °F 24% 30.01 in 10.0 mi NNW 15.0 mph 24.2 mph N/A   Clear
2:58 PM 40.5 °F 31.8 °F 3.4 °F 21% 30.01 in 10.0 mi NNW 17.3 mph - N/A   Clear
3:58 PM 39.4 °F 31.8 °F 4.8 °F 24% 30.01 in 10.0 mi NNW 12.7 mph - N/A   Clear
4:58 PM 37.2 °F 30.6 °F 3.4 °F 24% 30.01 in 10.0 mi NW 9.2 mph - N/A   Clear
5:58 PM 33.4 °F 30.4 °F 1.4 °F 26% 30.03 in 10.0 mi NW 3.5 mph - N/A   Clear
6:58 PM 29.1 °F - 3.4 °F 33% 30.01 in 10.0 mi Calm Calm - N/A   Clear
7:58 PM 23.4 °F 18.9 °F 8.1 °F 52% 29.98 in 10.0 mi SSE 3.5 mph - N/A   Clear
8:58 PM 25.3 °F 19.7 °F 6.8 °F 45% 29.94 in 10.0 mi South 4.6 mph - N/A   Clear
9:58 PM 24.8 °F 17.9 °F 8.4 °F 50% 29.93 in 10.0 mi South 5.8 mph - N/A   Clear
10:58 PM 26.2 °F 17.1 °F 7.0 °F 44% 29.86 in 10.0 mi South 9.2 mph - N/A   Clear
11:58 PM 29.7 °F 19.1 °F 10.4 °F 45% 29.81 in 10.0 mi SSW 13.8 mph - N/A   Clear